THOR ABLESTAR DEB, 48820

Orbit data source: Space-Track

THOR ABLESTAR DEB, 48820 is space debris in LEO originally from a launch on Thu, 29 Jun 1961 UTC launched from the Air Force Eastern Test Range (AFETR). Debris objects in space refer to the collection of defunct objects orbiting the Earth. Examples of debris include non-operational satellites, rocket bodies, and fragments generated from explosions, collisions, or faulty payload assembly.

Loading next visibility...
Identifier
48820, 1961-015MY
Orbit
LEO
Country
Flag of USUS
Related business
Manufacturer
Unknown
Mission
Spacecraft
Bus & Motor
Unknown
Mass
Unknown
Launch date (UTC)
1961-06-29 (64 years ago)
Launch vehicle
Unknown
Launch site
Air Force Eastern Test Range (AFETR)
Object type
Payload
Rocket body
Debris
Shape & HBR
Unknown shape, 0.1 m
Radar Cross Section
Small (<0.1 m²)

Expand to show TLE details & history
Last TLE update: 2 days ago

TLE from 2 days ago
0 THOR ABLESTAR DEB
1 48820U 61015MY  25292.27286713  .00000706  00000-0  84404-3 0  9997
2 48820  65.8490 171.5433 0142759 277.5888  80.8977 13.69153906595576
Epoch: 2025-10-19T06:32Z
TLE epoch observation values (Epoch: 2025-10-19T06:32:55.720Z)
Latitude
0.00007°
Longitude
45.31926°
Altitude
989.393 km
Speed
7.365 km/s
True Right ascension
11h 26m 10s
True Declination
0° 00' 00"
Sunlit
Object was in daylight at epoch
Visualization orbit readout
Latitude
Unknown
Longitude
Unknown
Altitude
Unknown
Speed
Unknown
Apparent Right ascension
Unknown
Apparent Declination
Unknown
Sunlit
N/A
Visualization observer readout
Local Sidereal Time
06:08:52
Azimuth
Unknown
Elevation
Unknown
Doppler factor
Unknown
Orbital elements
Apogee altitude
1,106.475 km
Perigee altitude
895.784 km
Semi-major axis
7,379.266 km
Eccentricity
0.01428
Inclination
65.849°
RAAN
171.5433°
Arg. of periapsis
277.5888°
True anomaly
82.51735°
Mean anomaly
80.8977°
Eccentric anomaly
81.7071°
Mean motion
3.42392 °/min
Orbital period
105.14 mins
BSTAR
0.00084404

Documentation

Showing up to 5 results
|